Location: Unspecified
(0.0000°N, 0.0000°E)
Time: 21:58:17
(UTC+00:00)

Geosat FO - Visible Passes

Search period start: 27 May 2024 00:00
Search period end: 06 June 2024 00:00
Orbit: 424 x 593 km, 108.0° (Epoch: 26 May)

Date Brightness Start Highest point End Pass type
(mag) Time Alt. Az. Time Alt. Az. Time Alt. Az.
27 May 6.6 04:51:11 10° NW 04:52:54 15° WNW 04:52:54 15° WNW visible
28 May 5.6 04:32:58 10° N 04:35:51 31° NW 04:35:51 31° NW visible
29 May 4.8 04:15:30 10° NNE 04:18:46 67° NNW 04:18:46 67° NNW visible
30 May 5.8 03:58:31 10° NE 04:01:39 43° E 04:01:39 43° E visible
31 May 7.1 03:42:08 10° ENE 03:44:31 20° ESE 03:44:31 20° ESE visible
31 May 6.6 05:15:33 10° NW 05:17:34 14° WNW 05:19:22 11° W visible
01 Jun 5.7 04:57:05 10° N 05:00:22 30° WNW 05:02:12 20° WSW visible
02 Jun 4.7 04:39:27 10° NNE 04:43:09 71° WNW 04:45:01 29° SSW visible
03 Jun 5.6 04:22:18 10° NE 04:25:56 49° ESE 04:27:48 26° S visible
04 Jun 6.9 04:05:43 10° ENE 04:08:44 22° ESE 04:10:33 16° SSE visible
05 Jun 7.8 03:50:37 10° E 03:51:31 11° ESE 03:52:25 10° SE visible
05 Jun 5.8 05:20:41 10° N 05:23:59 29° WNW 05:27:25 10° SW visible
